Location: Aurora Center
(43.5271°N, 98.5894°W)
Time: 07:51:08
(UTC-05:00)

Vanguard 1 - All Passes

Search period start: 19 July 2024 00:00
Search period end: 29 July 2024 00:00
Orbit: 650 x 3826 km, 34.3° (Epoch: 15 July)

Date Brightness Start Highest point End Pass type
(mag) Time Alt. Az. Time Alt. Az. Time Alt. Az.
19 Jul - 02:02:02 10° SSE 02:13:20 17° SE 02:25:41 10° E visible
19 Jul - 04:16:08 10° SSW 04:35:47 44° SSE 04:55:26 10° E visible
19 Jul - 06:38:02 10° WSW 07:00:57 63° S 07:18:58 10° E daylight
19 Jul - 09:04:02 10° W 09:25:59 60° SSW 09:39:54 10° ESE daylight
19 Jul - 11:32:16 10° W 11:47:53 34° SW 11:57:43 10° SSE daylight
20 Jul - 02:18:41 10° S 02:32:38 24° SE 02:48:20 10° E visible
20 Jul - 04:35:19 10° SW 04:55:43 50° SSE 05:15:54 10° E visible
20 Jul - 06:58:09 10° WSW 07:21:15 65° S 07:39:01 10° E daylight
20 Jul - 09:24:35 10° W 09:46:00 56° SSW 09:59:33 10° SE daylight
20 Jul - 11:53:24 10° W 12:07:11 27° SW 12:16:22 10° S daylight
21 Jul - 02:36:24 10° S 02:52:02 30° SE 03:09:58 10° E visible
21 Jul - 04:54:45 10° SW 05:15:45 55° SSE 05:36:15 10° E visible
21 Jul - 07:18:23 10° WSW 07:41:34 65° S 07:59:01 10° ESE daylight
21 Jul - 09:45:10 10° W 10:05:52 50° SSW 10:19:02 10° SE daylight
21 Jul - 12:15:02 10° W 12:26:20 21° SW 12:34:27 10° S daylight
22 Jul - 02:54:46 10° SSW 03:11:33 36° SE 03:31:04 10° E visible
22 Jul - 05:14:27 10° SW 05:35:55 60° SSE 05:56:31 10° E visible
22 Jul - 07:38:43 10° W 08:01:51 64° S 08:18:56 10° ESE daylight
22 Jul - 10:05:51 10° W 10:25:34 44° SSW 10:38:20 10° SSE daylight
22 Jul - 12:37:41 10° W 12:45:22 15° WSW 12:51:30 10° SSW daylight
23 Jul - 01:00:38 10° SSE 01:09:44 16° SE 01:20:15 10° E visible
23 Jul - 03:13:33 10° SSW 03:31:12 43° SE 03:51:50 10° E visible
23 Jul - 05:34:18 10° WSW 05:56:10 63° S 06:16:44 10° E visible
23 Jul - 07:59:06 10° W 08:22:02 62° SSW 08:38:46 10° ESE daylight
23 Jul - 10:26:40 10° W 10:45:07 38° SW 10:57:22 10° SSE daylight
24 Jul - 01:17:03 10° S 01:28:52 22° SE 01:43:18 10° E visible
24 Jul - 03:32:42 10° SW 03:50:59 49° SSE 04:12:25 10° E visible
24 Jul - 05:54:19 10° WSW 06:16:29 66° S 06:36:52 10° E daylight
24 Jul - 08:19:33 10° W 08:42:08 58° SSW 08:58:27 10° SE daylight
24 Jul - 10:47:42 10° W 11:04:29 31° SW 11:16:05 10° S daylight
25 Jul - 01:34:42 10° S 01:48:05 28° SE 02:05:09 10° E visible
25 Jul - 03:52:04 10° SW 04:10:56 55° SSE 04:32:53 10° E visible
25 Jul - 06:14:26 10° WSW 06:36:49 66° S 06:56:58 10° ESE daylight
25 Jul - 08:40:02 10° W 09:02:06 53° SSW 09:17:59 10° SE daylight
25 Jul - 11:09:08 10° W 11:23:41 24° SW 11:34:18 10° S daylight
26 Jul - 01:53:01 10° SSW 02:07:26 35° SE 02:26:24 10° E visible
26 Jul - 04:11:40 10° SW 04:31:01 60° SSE 04:53:15 10° E visible
26 Jul - 06:34:39 10° W 06:57:08 65° S 07:16:58 10° ESE daylight
26 Jul - 09:00:37 10° W 09:21:55 47° SSW 09:37:19 10° SE daylight
26 Jul - 11:31:20 10° W 11:42:47 18° SW 11:51:45 10° SSW daylight
27 Jul - 00:00:28 10° SE 00:06:35 13° ESE 00:13:38 10° E visible
27 Jul - 02:11:47 10° SSW 02:26:56 41° SE 02:47:18 10° E visible
27 Jul - 04:31:27 10° WSW 04:51:12 63° SSE 05:13:33 10° E visible
27 Jul - 06:54:54 10° W 07:17:24 63° SSW 07:36:51 10° ESE daylight
27 Jul - 09:21:19 10° W 09:41:34 41° SW 09:56:23 10° SSE daylight
27 Jul - 11:55:22 10° WSW 12:01:45 12° WSW 12:07:21 10° SW daylight
28 Jul - 00:16:16 10° SSE 00:25:34 19° SE 00:37:28 10° E visible
28 Jul - 02:30:51 10° SW 02:46:35 47° SSE 03:07:59 10° E visible
28 Jul - 04:51:21 10° WSW 05:11:28 65° S 05:33:48 10° E visible
28 Jul - 07:15:13 10° W 07:37:34 59° SSW 07:56:36 10° SE daylight
28 Jul - 09:42:14 10° W 10:01:01 34° SW 10:15:08 10° SSE daylight
